Terminal Aerodrome Forecast
Issued by NWS

Home | Current Version | Previous Version | Text Only | Print | Product List | Glossary On
Versions: 1 2 3 4 5 6 7 8 9 10 11 12 13 14
000
FTUS45 KRIW 192300
TAFPNA
TAF
KPNA 192335Z 2000/2024 35010G20KT P6SM FEW120 SCT250
     FM200200 VRB04KT P6SM SCT250
     FM201900 29013G23KT P6SM SCT070 SCT250
      AMD LTD TO CLD VIS AND WIND=

USA.gov is the U.S. government's official web portal to all federal, state and local government web resources and services.